Stations météo

réclame
Mon MeteoGroup
Le Havre/Octeville, France (7046): Température de l'air & dewpoint: 14.06.2018 07:00:00 - 20.06.2018 07:00:00 (CEST)Le Havre/Octeville, France (7046): Vitesse du vent & gusts: 14.06.2018 07:00:00 - 20.06.2018 07:00:00 (CEST)Le Havre/Octeville, France (7046): Direction du vent: 14.06.2018 07:00:00 - 20.06.2018 07:00:00 (CEST)Le Havre/Octeville, France (7046): reduced air pressure: 14.06.2018 07:00:00 - 20.06.2018 07:00:00 (CEST)Le Havre/Octeville, France (7046): visibility: 14.06.2018 07:00:00 - 20.06.2018 07:00:00 (CEST)Le Havre/Octeville, France (7046): Quantités de précipitations: 14.06.2018 07:00:00 - 20.06.2018 07:00:00 (CEST)
Date & Time tt [°C] td [°C] ff [km/h] ff [knt] fx [km/h] fx [knt] dd ppp [hPa] vv [km] rr [mm]
20.06.2018 07:00:00 16,8 15,3 4 2 7 4 E 1023,1 8 0,0
20.06.2018 06:00:00 16,6 15,3 5 3 9 5 SE 1023,3 5 0,0
20.06.2018 05:00:00 16,5 15,2 6 4 9 5 SE 1023,3 15 0,0
20.06.2018 04:00:00 16,1 15,0 6 3 7 4 E 1023,6 18 0,0
20.06.2018 03:00:00 16,1 15,0 0 0 5 3 N 1024,0 13 0,0
20.06.2018 02:00:00 16,1 14,8 3 1 4 2 NE 1024,5 24 0,0
20.06.2018 01:00:00 15,9 14,8 4 2 6 3 NE 1024,8 27 0,0
20.06.2018 00:00:00 15,0 14,0 0 0 6 3 N 1025,1 26 0,0
19.06.2018 23:00:00 13,9 12,5 5 3 8 4 NNE 1025,1 20 0,0
19.06.2018 22:00:00 15,4 13,6 6 4 12 6 NNE 1024,9 28 0,0
19.06.2018 21:00:00 16,9 14,5 10 5 16 9 N 1024,9 33 0,0
19.06.2018 20:00:00 17,7 15,1 13 7 21 12 NNW 1025,1 34 0,0
19.06.2018 19:00:00 17,7 15,0 16 9 19 11 NNW 1025,3 43 0,0
19.06.2018 18:00:00 19,0 15,1 13 7 17 9 NW 1025,6 34 0,0
19.06.2018 17:00:00 19,1 14,6 10 6 16 9 WNW 1025,9 41 0,0
19.06.2018 16:00:00 19,7 14,5 8 5 16 9 WSW 1025,9 44 0,0
19.06.2018 15:00:00 19,0 14,3 10 5 19 10 W 1026,3 43 0,0
19.06.2018 14:00:00 19,1 14,8 13 7 22 12 W 1026,5 60 0,0
19.06.2018 13:00:00 18,3 15,7 15 8 24 13 SW 1026,5 19 0,0
19.06.2018 12:00:00 16,9 16,3 16 8 24 13 WSW 1026,5 19 0,0
19.06.2018 11:00:00 16,3 16,0 15 8 24 13 SW 1026,4 12 0,0
19.06.2018 10:00:00 16,0 15,7 18 10 25 13 SW 1026,5 9 0,0
19.06.2018 09:00:00 15,6 15,3 16 9 25 14 SW 1026,3 1,9 0,0
19.06.2018 08:00:00 15,4 15,1 15 8 22 12 SW 1026,0 1,8 0,0
19.06.2018 07:00:00 15,1 14,8 14 8 24 13 WSW 1025,9 0,7 0,2
19.06.2018 06:00:00 15,0 14,7 17 9 30 16 WSW 1025,8 2,1 0,2
19.06.2018 05:00:00 14,8 14,3 19 10 33 18 WSW 1025,5 3,9 0,0
19.06.2018 04:00:00 14,8 14,2 23 12 33 18 WSW 1025,2 16 0,0
19.06.2018 03:00:00 15,1 14,3 16 9 35 19 WSW 1025,2 43 0,0
19.06.2018 02:00:00 15,4 14,6 21 12 31 17 WSW 1025,1 12 0,0
19.06.2018 01:00:00 15,8 14,7 18 10 30 16 WSW 1025,3 14 0,0
19.06.2018 00:00:00 15,9 14,3 17 9 31 17 WSW 1025,3 16 0,0
18.06.2018 23:00:00 16,0 13,8 18 10 32 17 WSW 1025,2 20 0,0
18.06.2018 22:00:00 16,2 13,5 19 10 38 21 WSW 1024,8 41 0,0
18.06.2018 21:00:00 16,8 13,3 22 12 37 20 W 1024,2 20 0,0
18.06.2018 20:00:00 17,5 13,4 17 9 32 17 W 1023,9 20 0,0
18.06.2018 19:00:00 18,2 12,9 17 9 27 15 W 1023,6 37 0,0
18.06.2018 18:00:00 17,7 12,4 16 8 27 14 W 1023,7 39 0,0
18.06.2018 17:00:00 17,0 11,9 16 9 27 14 W 1023,9 18 0,0
18.06.2018 16:00:00 17,2 13,1 18 10 29 16 W 1024,3 19 0,0
18.06.2018 15:00:00 16,5 13,0 18 10 34 19 WSW 1024,3 46 0,0
18.06.2018 14:00:00 15,7 12,8 23 13 38 21 W 1024,1 54 0,0
18.06.2018 13:00:00 16,1 13,4 20 11 31 17 WSW 1023,8 55 0,0
18.06.2018 12:00:00 14,7 12,9 20 11 35 19 WSW 1023,6 7 0,0
18.06.2018 11:00:00 15,1 12,6 22 12 40 22 W 1023,2 59 0,0
18.06.2018 10:00:00 14,8 13,0 24 13 34 18 WSW 1022,6 34 0,0
18.06.2018 09:00:00 14,3 13,7 18 10 34 18 WSW 1021,9 17 0,0
18.06.2018 08:00:00 14,4 13,4 18 10 32 17 WSW 1021,5 14 0,0
18.06.2018 07:00:00 14,4 13,6 23 13 36 19 WSW 1021,2 16 0,0
18.06.2018 06:00:00 14,6 14,1 19 11 31 17 WSW 1021,0 11 0,0
18.06.2018 05:00:00 15,0 14,5 22 12 32 17 SW 1020,7 3,2 0,6
18.06.2018 04:00:00 15,2 14,7 20 11 30 16 SW 1020,5 2,6 0,4
18.06.2018 03:00:00 15,6 14,1 17 9 34 18 SW 1020,2 4,7 0,0
18.06.2018 02:00:00 16,3 13,8 18 10 32 18 SSW 1020,4 39 0,0
18.06.2018 01:00:00 16,3 13,4 19 10 30 16 SSW 1020,5 19 0,0
18.06.2018 00:00:00 16,4 13,5 15 8 31 17 SSW 1020,5 45 0,0
17.06.2018 23:00:00 16,5 13,0 22 12 35 19 SSW 1020,7 18 0,0
17.06.2018 22:00:00 16,7 13,0 20 11 33 18 SW 1020,4 52 0,0
17.06.2018 21:00:00 17,4 11,4 11 6 22 12 SSW 1020,1 58 0,0
17.06.2018 20:00:00 17,4 10,5 7 4 12 6 SW 1020,1 54 0,0
17.06.2018 19:00:00 16,4 10,3 5 3 13 7 W 1020,2 55 0,0
17.06.2018 18:00:00 17,2 10,8 4 2 16 9 W 1020,0 56 0,0
17.06.2018 17:00:00 17,2 10,8 10 6 25 14 W 1020,3 39 0,0
17.06.2018 16:00:00 17,4 11,2 13 7 23 13 W 1020,3 20 0,0
17.06.2018 15:00:00 17,1 10,2 13 7 20 11 WSW 1020,3 39 0,0
17.06.2018 14:00:00 16,3 10,6 15 8 26 14 SW 1020,5 51 0,0
17.06.2018 13:00:00 16,5 10,8 19 10 30 16 WSW 1020,5 20 0,0
17.06.2018 12:00:00 16,8 11,7 21 11 32 18 WSW 1020,3 18 0,0
17.06.2018 11:00:00 15,1 11,3 21 11 32 18 SW 1020,4 20 0,0
17.06.2018 10:00:00 14,2 11,2 23 12 34 19 WSW 1020,3 20 0,0
17.06.2018 09:00:00 14,2 11,2 23 12 34 18 SW 1019,8 20 0,0
17.06.2018 08:00:00 13,7 10,7 19 11 34 18 SW 1019,3 44 0,0
17.06.2018 07:00:00 13,5 10,5 21 12 34 18 SW 1018,9 43 0,0
17.06.2018 06:00:00 13,2 10,7 19 10 31 17 SW 1018,7 39 0,0
17.06.2018 05:00:00 13,2 10,9 18 10 34 18 SW 1018,7 20 0,0
17.06.2018 04:00:00 13,1 10,3 23 12 36 19 WSW 1018,7 38 0,0
17.06.2018 03:00:00 13,4 9,8 23 13 40 21 WSW 1018,7 42 0,0
17.06.2018 02:00:00 13,7 9,9 24 13 38 21 W 1018,8 38 0,0
17.06.2018 01:00:00 13,7 9,3 21 11 36 19 W 1018,7 41 0,0
17.06.2018 00:00:00 14,2 11,5 23 12 40 22 W 1018,5 16 0,0
16.06.2018 23:00:00 14,4 11,5 24 13 34 18 WSW 1018,1 18 0,0
16.06.2018 22:00:00 14,8 11,2 19 10 36 19 W 1017,8 40 0,0
16.06.2018 21:00:00 15,1 12,0 11 6 22 12 W 1017,7 49 0,0
16.06.2018 20:00:00 16,3 11,2 8 4 12 6 W 1017,5 20 0,0
16.06.2018 19:00:00 16,5 10,6 6 3 14 7 W 1017,1 60 0,0
16.06.2018 18:00:00 16,9 10,5 9 5 23 12 W 1017,4 60 0,0
16.06.2018 17:00:00 17,8 9,9 12 6 21 11 W 1017,1 60 0,0
16.06.2018 16:00:00 17,5 10,6 13 7 22 12 W 1017,2 58 0,0
16.06.2018 15:00:00 17,1 10,5 13 7 22 12 W 1017,3 19 0,0
16.06.2018 14:00:00 16,1 10,8 8 5 18 10 W 1017,2 54 0,0
16.06.2018 13:00:00 16,3 10,8 11 6 22 12 W 1017,8 46 0,0
16.06.2018 12:00:00 16,3 12,5 14 8 24 13 SW 1017,7 20 0,0
16.06.2018 11:00:00 15,1 11,9 14 8 24 13 SW 1017,6 33 0,0
16.06.2018 10:00:00 14,9 11,5 13 7 20 11 SSW 1017,9 38 0,0
16.06.2018 09:00:00 14,2 11,5 13 7 19 10 SW 1017,9 20 0,0
16.06.2018 08:00:00 13,4 11,3 11 6 18 10 WSW 1017,4 20 0,0
16.06.2018 07:00:00 12,5 10,7 9 5 20 11 SW 1017,5 20 0,0
16.06.2018 06:00:00 12,5 10,9 13 7 21 11 SW 1017,5 19 0,0
16.06.2018 05:00:00 12,3 10,4 10 5 13 7 SW 1017,2 20 0,0
16.06.2018 04:00:00 12,5 10,4 10 5 17 9 SW 1017,5 20 0,0
16.06.2018 03:00:00 12,7 10,4 11 6 16 9 WSW 1017,7 42 0,0
16.06.2018 02:00:00 12,4 9,8 10 5 20 11 W 1018,1 43 0,0
16.06.2018 01:00:00 13,0 10,0 14 7 22 12 W 1018,2 46 0,0
16.06.2018 00:00:00 12,6 10,0 12 7 21 11 WNW 1018,4 40 0,0
15.06.2018 23:00:00 12,2 9,8 11 6 18 10 NW 1018,7 38 0,0
15.06.2018 22:00:00 12,0 8,8 9 5 18 10 NW 1018,6 47 0,0
15.06.2018 21:00:00 13,4 9,1 11 6 21 12 NW 1018,4 43 0,0
15.06.2018 20:00:00 13,7 9,9 13 7 20 11 NW 1018,4 35 0,0
15.06.2018 19:00:00 14,8 10,4 12 7 21 11 NW 1018,6 19 0,0
15.06.2018 18:00:00 15,6 10,6 16 9 24 13 NW 1018,7 19 0,0
15.06.2018 17:00:00 16,3 10,2 14 8 22 12 NNW 1018,6 19 0,0
15.06.2018 16:00:00 16,0 9,4 11 6 22 12 NW 1018,8 20 0,0
15.06.2018 15:00:00 15,6 11,8 15 8 22 12 NW 1018,8 19 0,0
15.06.2018 14:00:00 15,5 11,7 12 7 19 11 NW 1019,1 18 0,0
15.06.2018 13:00:00 15,9 12,1 10 6 17 9 W 1018,7 19 0,0
15.06.2018 12:00:00 15,2 11,8 10 6 18 10 W 1018,8 19 0,0
15.06.2018 11:00:00 15,0 11,2 14 8 22 12 WNW 1018,7 19 0,0
15.06.2018 10:00:00 15,0 11,9 13 7 22 12 W 1018,3 18 0,0
15.06.2018 09:00:00 14,5 12,2 16 9 23 12 W 1018,3 17 0,0
15.06.2018 08:00:00 13,8 12,2 11 6 16 8 WSW 1018,0 14 0,0
15.06.2018 07:00:00 12,6 11,7 9 5 16 8 WSW 1017,6 13 0,0
15.06.2018 06:00:00 12,2 11,3 14 8 21 11 W 1017,6 12 0,0
15.06.2018 05:00:00 12,3 11,5 14 8 21 11 WSW 1017,5 12 0,0
15.06.2018 04:00:00 11,7 10,6 14 8 18 10 WSW 1017,5 13 0,0
15.06.2018 03:00:00 12,2 10,9 10 5 20 11 SW 1017,9 13 0,0
15.06.2018 02:00:00 12,6 11,0 11 6 16 9 SW 1017,7 17 0,0
15.06.2018 01:00:00 13,3 11,0 11 6 16 9 SSW 1017,7 19 0,0
15.06.2018 00:00:00 13,2 10,4 11 6 25 13 W 1017,9 19 0,0
14.06.2018 23:00:00 13,9 10,7 15 8 24 13 W 1018,1 20 0,0
14.06.2018 22:00:00 14,0 10,6 14 8 27 14 W 1017,5 19 0,0
14.06.2018 21:00:00 14,7 10,9 13 7 21 12 WNW 1017,0 19 0,0
14.06.2018 20:00:00 15,4 12,5 12 7 22 12 W 1016,6 18 0,0
14.06.2018 19:00:00 16,0 13,5 13 7 26 14 W 1016,3 16 0,0
14.06.2018 18:00:00 16,5 13,8 17 9 29 16 WSW 1016,0 19 0,0
14.06.2018 17:00:00 15,5 14,5 19 10 36 19 WSW 1016,0 20 0,0
14.06.2018 16:00:00 16,1 14,8 21 12 31 17 SW 1015,7 17 0,0
14.06.2018 15:00:00 16,2 14,6 19 10 29 15 SSW 1015,4 27 0,2
14.06.2018 14:00:00 15,6 14,1 15 8 27 15 SSW 1015,7 2,9 0,4
14.06.2018 13:00:00 16,0 12,5 18 10 32 18 SSW 1015,7 6 0,0
14.06.2018 12:00:00 16,5 11,8 21 11 39 21 SSW 1015,1 38 0,0
14.06.2018 11:00:00 16,0 11,8 22 12 35 19 SSW 1015,3 19 0,0
14.06.2018 10:00:00 15,1 12,0 20 11 33 18 SSW 1015,4 38 0,0
14.06.2018 09:00:00 14,4 12,3 17 9 26 14 SW 1015,8 17 0,0
14.06.2018 08:00:00 14,3 11,4 16 9 23 12 SSW 1015,7 18 0,0
14.06.2018 07:00:00 14,3 11,8 12 6 22 12 SSW 1015,5 20 0,0

tt = Température de l'air
td = dewpoint
ff = Vitesse du vent
fx = gusts
dd = Direction du vent
ppp = reduced air pressure
vv = visibility
rr = Quantités de précipitations

stations d'obs. à proximité